Location: Unspecified
(42.2730°N, 83.7130°W)
Time: 14:30:18
(UTC+00:00)

BREEZE M DEB (TANK) - Pass Details

Date: 14 December 2025
Orbit: 291 x 11213 km, 49.5° (Epoch: 17 January)

Event Time Altitude Azimuth Distance (km) Brightness Sun altitude
Exits shadow 12:17:10 - 280° (W) 1,364 3.7 -7.2°
Reaches altitude 10° 12:17:17 10° 281° (W) 1,312 3.6 -7.2°
Maximum altitude 12:19:40 36° 353° (N) 786 2.9 -6.8°
Drops below altitude 10° 12:24:32 10° 61° (ENE) 2,714 6.4 -6.0°
Sets 12:29:14 0° 68° (ENE) 4,854 7.8 -5.2°
